,,,PA_Meas_PMT16A,,PR_Meas_QMR101_102,,RH_Meas_QMH101,,SR_Meas_QMS101,,TA_Meas_QMH101,,GenWind,,GenWind,
date,time,status,PA,status,PR,status,RH,status,SR,status,TA,status,DirAvg,status,SpdAvg,
2013-03-12, 00:00:04,VALID,1011.87,VALID,0,VALID,104,VALID,0.112112,VALID,23.5558,VALID,335,VALID,0.140625,
2013-03-12, 00:01:04,VALID,1011.85,VALID,0,VALID,104,VALID,0,VALID,23.5558,VALID,335,VALID,0.182812,
2013-03-12, 00:02:04,VALID,1011.86,VALID,0,VALID,104,VALID,0.112112,VALID,23.5558,VALID,334,VALID,0,
2013-03-12, 00:03:04,VALID,1011.85,VALID,0,VALID,104,VALID,0.112112,VALID,23.5169,VALID,335,VALID,0,
2013-03-12, 00:04:04,VALID,1011.86,VALID,0,VALID,104,VALID,0.112112,VALID,23.5381,VALID,334,VALID,0,
2013-03-12, 00:05:04,VALID,1011.89,VALID,0,VALID,104,VALID,0.112112,VALID,23.5558,VALID,335,VALID,0,
2013-03-12, 00:06:04,VALID,1011.9,VALID,0,VALID,104,VALID,0.112112,VALID,23.5558,VALID,335,VALID,0,
2013-03-12, 00:07:04,VALID,1011.85,VALID,0,VALID,104,VALID,0.112112,VALID,23.4974,VALID,334,VALID,0,
2013-03-12, 00:08:04,VALID,1011.84,VALID,0,VALID,104,VALID,0.112112,VALID,23.4974,VALID,335,VALID,0,
2013-03-12, 00:09:04,VALID,1011.84,VALID,0,VALID,104,VALID,0.112112,VALID,23.4992,VALID,335,VALID,0,
2013-03-12, 00:10:04,VALID,1011.84,VALID,0,VALID,104,VALID,0.112112,VALID,23.4584,VALID,335,VALID,0,
2013-03-12, 00:11:04,VALID,1011.83,VALID,0,VALID,104,VALID,0.112112,VALID,23.4389,VALID,335,VALID,0,
2013-03-12, 00:12:04,VALID,1011.79,VALID,0,VALID,104,VALID,0.112112,VALID,23.4389,VALID,335,VALID,0,
2013-03-12, 00:13:04,VALID,1011.77,VALID,0,VALID,104,VALID,0.112112,VALID,23.4602,VALID,335,VALID,0,
2013-03-12, 00:14:04,VALID,1011.77,VALID,0,VALID,104,VALID,0.112112,VALID,23.4389,VALID,335,VALID,0,
2013-03-12, 00:15:04,VALID,1011.77,VALID,0,VALID,104,VALID,0.112112,VALID,23.4389,VALID,335,VALID,0,
2013-03-12, 00:16:04,VALID,1011.77,VALID,0,VALID,104,VALID,0,VALID,23.4584,VALID,335,VALID,0,
2013-03-12, 00:17:04,VALID,1011.72,VALID,0,VALID,104,VALID,0.112112,VALID,23.4992,VALID,335,VALID,0,
2013-03-12, 00:18:04,VALID,1011.7,VALID,0,VALID,104,VALID,0.112112,VALID,23.4779,VALID,335,VALID,0,
2013-03-12, 00:19:04,VALID,1011.68,VALID,0,VALID,104,VALID,0.112112,VALID,23.4389,VALID,335,VALID,0,
2013-03-12, 00:20:04,VALID,1011.67,VALID,0,VALID,104,VALID,0,VALID,23.4389,VALID,334,VALID,0,
2013-03-12, 00:21:04,VALID,1011.65,VALID,0,VALID,104,VALID,0,VALID,23.4212,VALID,334,VALID,0,
2013-03-12, 00:22:04,VALID,1011.63,VALID,0,VALID,104,VALID,0,VALID,23.4,VALID,335,VALID,0,
2013-03-12, 00:23:04,VALID,1011.61,VALID,0,VALID,104,VALID,0,VALID,23.4212,VALID,334,VALID,0,
2013-03-12, 00:24:04,VALID,1011.64,VALID,0,VALID,104,VALID,0,VALID,23.361,VALID,334,VALID,0,
2013-03-12, 00:25:04,VALID,1011.6,VALID,0,VALID,104,VALID,0,VALID,23.322,VALID,335,VALID,0,
2013-03-12, 00:26:04,VALID,1011.57,VALID,0,VALID,104,VALID,0,VALID,23.322,VALID,335,VALID,0,
2013-03-12, 00:27:04,VALID,1011.57,VALID,0,VALID,104,VALID,0,VALID,23.3238,VALID,335,VALID,0,
2013-03-12, 00:28:04,VALID,1011.54,VALID,0,VALID,104,VALID,0.112112,VALID,23.2636,VALID,335,VALID,0,
2013-03-12, 00:29:04,VALID,1011.51,VALID,0,VALID,104,VALID,0,VALID,23.2441,VALID,335,VALID,0,
2013-03-12, 00:30:04,VALID,1011.51,VALID,0,VALID,104,VALID,0,VALID,23.2654,VALID,334,VALID,0,
2013-03-12, 00:31:04,VALID,1011.47,VALID,0,VALID,104,VALID,0,VALID,23.2246,VALID,335,VALID,0,
2013-03-12, 00:32:04,VALID,1011.47,VALID,0,VALID,104,VALID,0.112112,VALID,23.2654,VALID,335,VALID,0,
2013-03-12, 00:33:04,VALID,1011.45,VALID,0,VALID,104,VALID,0,VALID,23.2654,VALID,335,VALID,0,
2013-03-12, 00:34:04,VALID,1011.46,VALID,0,VALID,104,VALID,0,VALID,23.2654,VALID,335,VALID,0,
2013-03-12, 00:35:04,VALID,1011.44,VALID,0,VALID,104,VALID,0,VALID,23.2848,VALID,334,VALID,0,
2013-03-12, 00:36:04,VALID,1011.4,VALID,0,VALID,104,VALID,0,VALID,23.2636,VALID,335,VALID,0,
2013-03-12, 00:37:04,VALID,1011.43,VALID,0,VALID,104,VALID,0,VALID,23.2636,VALID,335,VALID,0,
2013-03-12, 00:38:04,VALID,1011.41,VALID,0,VALID,104,VALID,0.112112,VALID,23.2636,VALID,334,VALID,0,
2013-03-12, 00:39:04,VALID,1011.43,VALID,0,VALID,104,VALID,0,VALID,23.2246,VALID,335,VALID,0,
2013-03-12, 00:40:04,VALID,1011.42,VALID,0,VALID,104,VALID,0,VALID,23.2654,VALID,334,VALID,0,
2013-03-12, 00:41:04,VALID,1011.4,VALID,0,VALID,104,VALID,0,VALID,23.2459,VALID,335,VALID,0,
2013-03-12, 00:42:04,VALID,1011.39,VALID,0,VALID,104,VALID,0,VALID,23.2051,VALID,335,VALID,0,
2013-03-12, 00:43:04,VALID,1011.36,VALID,0,VALID,104,VALID,0,VALID,23.1662,VALID,334,VALID,0,
2013-03-12, 00:44:04,VALID,1011.36,VALID,0,VALID,104,VALID,0,VALID,23.1874,VALID,334,VALID,0,
2013-03-12, 00:45:04,VALID,1011.33,VALID,0,VALID,104,VALID,0.112112,VALID,23.1467,VALID,335,VALID,0,
2013-03-12, 00:46:04,VALID,1011.3,VALID,0,VALID,104,VALID,0,VALID,23.1874,VALID,335,VALID,0,
2013-03-12, 00:47:04,VALID,1011.29,VALID,0,VALID,104,VALID,0.112112,VALID,23.2264,VALID,335,VALID,0,
2013-03-12, 00:48:04,VALID,1011.27,VALID,0,VALID,104,VALID,0,VALID,23.2459,VALID,335,VALID,0,
2013-03-12, 00:49:04,VALID,1011.27,VALID,0,VALID,104,VALID,0,VALID,23.2051,VALID,334,VALID,0,
2013-03-12, 00:50:04,VALID,1011.23,VALID,0,VALID,104,VALID,0,VALID,23.2246,VALID,334,VALID,0,
2013-03-12, 00:51:04,VALID,1011.22,VALID,0,VALID,104,VALID,0,VALID,23.1857,VALID,335,VALID,0,
2013-03-12, 00:52:04,VALID,1011.2,VALID,0,VALID,104,VALID,0,VALID,23.1467,VALID,335,VALID,0,
2013-03-12, 00:53:04,VALID,1011.18,VALID,0,VALID,104,VALID,0,VALID,23.1272,VALID,335,VALID,0,
2013-03-12, 00:54:04,VALID,1011.19,VALID,0,VALID,104,VALID,0,VALID,23.129,VALID,335,VALID,0,
2013-03-12, 00:55:05,VALID,1011.15,VALID,0,VALID,104,VALID,0,VALID,23.1272,VALID,335,VALID,0,
2013-03-12, 00:56:05,VALID,1011.13,VALID,0,VALID,104,VALID,0,VALID,23.1095,VALID,335,VALID,0,
2013-03-12, 00:57:05,VALID,1011.09,VALID,0,VALID,104,VALID,0,VALID,23.1077,VALID,334,VALID,0.183984,
2013-03-12, 00:58:05,VALID,1011.09,VALID,0,VALID,104,VALID,0,VALID,23.1467,VALID,335,VALID,0.469141,
2013-03-12, 00:59:05,VALID,1011.07,VALID,0,VALID,104,VALID,0,VALID,23.1679,VALID,334,VALID,0.403516,
2013-03-12, 01:00:05,VALID,1011.06,VALID,0,VALID,104,VALID,0,VALID,23.1662,VALID,335,VALID,0.357812,
2013-03-12, 01:01:05,VALID,1011.02,VALID,0,VALID,104,VALID,0.112112,VALID,23.1662,VALID,334,VALID,0.238281,
2013-03-12, 01:02:05,VALID,1011.01,VALID,0,VALID,104,VALID,0,VALID,23.1272,VALID,335,VALID,0.0140625,
2013-03-12, 01:03:05,VALID,1010.96,VALID,0,VALID,104,VALID,0,VALID,23.1272,VALID,335,VALID,0,
2013-03-12, 01:04:05,VALID,1010.97,VALID,0,VALID,104,VALID,0.112112,VALID,23.1077,VALID,334,VALID,0,
2013-03-12, 01:05:05,VALID,1010.93,VALID,0,VALID,104,VALID,0,VALID,23.1272,VALID,335,VALID,0,
2013-03-12, 01:06:05,VALID,1010.93,VALID,0,VALID,104,VALID,0.112112,VALID,23.1272,VALID,335,VALID,0,
2013-03-12, 01:07:05,VALID,1010.94,VALID,0,VALID,104,VALID,0.112112,VALID,23.1662,VALID,335,VALID,0,
2013-03-12, 01:08:05,VALID,1010.92,VALID,0,VALID,104,VALID,0,VALID,23.1467,VALID,334,VALID,0,
2013-03-12, 01:09:05,VALID,1010.92,VALID,0,VALID,104,VALID,0.112112,VALID,23.1467,VALID,335,VALID,0,
2013-03-12, 01:10:05,VALID,1010.93,VALID,0,VALID,104,VALID,0.112112,VALID,23.1485,VALID,335,VALID,0,
2013-03-12, 01:11:05,VALID,1010.91,VALID,0,VALID,104,VALID,0.112112,VALID,23.1467,VALID,335,VALID,0,
2013-03-12, 01:12:05,VALID,1010.92,VALID,0,VALID,104,VALID,0.112112,VALID,23.1874,VALID,335,VALID,0,
2013-03-12, 01:13:05,VALID,1010.9,VALID,0,VALID,104,VALID,0.112112,VALID,23.1467,VALID,335,VALID,0,
2013-03-12, 01:14:05,VALID,1010.89,VALID,0,VALID,104,VALID,0.112112,VALID,23.1077,VALID,335,VALID,0,
2013-03-12, 01:15:05,VALID,1010.9,VALID,0,VALID,104,VALID,0.112112,VALID,23.129,VALID,335,VALID,0,
2013-03-12, 01:16:05,VALID,1010.92,VALID,0,VALID,104,VALID,0,VALID,23.1077,VALID,334,VALID,0,
2013-03-12, 01:17:05,VALID,1010.91,VALID,0,VALID,104,VALID,0.112112,VALID,23.1272,VALID,335,VALID,0,
2013-03-12, 01:18:05,VALID,1010.9,VALID,0,VALID,104,VALID,0,VALID,23.129,VALID,335,VALID,0,
2013-03-12, 01:19:05,VALID,1010.91,VALID,0,VALID,104,VALID,0,VALID,23.1679,VALID,334,VALID,0,
2013-03-12, 01:20:05,VALID,1010.88,VALID,0,VALID,104,VALID,0.112112,VALID,23.1467,VALID,335,VALID,0,
2013-03-12, 01:21:05,VALID,1010.89,VALID,0,VALID,104,VALID,0,VALID,23.1272,VALID,335,VALID,0,
2013-03-12, 01:22:05,VALID,1010.86,VALID,0,VALID,104,VALID,0,VALID,23.1272,VALID,335,VALID,0,
2013-03-12, 01:23:05,VALID,1010.84,VALID,0,VALID,104,VALID,0,VALID,23.129,VALID,335,VALID,0,
2013-03-12, 01:24:05,VALID,1010.83,VALID,0,VALID,104,VALID,0.112112,VALID,23.129,VALID,335,VALID,0,
2013-03-12, 01:25:05,VALID,1010.81,VALID,0,VALID,104,VALID,0.112112,VALID,23.1095,VALID,335,VALID,0,
2013-03-12, 01:26:05,VALID,1010.77,VALID,0,VALID,104,VALID,0,VALID,23.0705,VALID,334,VALID,0,
2013-03-12, 01:27:05,VALID,1010.75,VALID,0,VALID,104,VALID,0.112112,VALID,23.0511,VALID,335,VALID,0,
2013-03-12, 01:28:05,VALID,1010.76,VALID,0,VALID,104,VALID,0,VALID,23.0316,VALID,334,VALID,0,
2013-03-12, 01:29:05,VALID,1010.72,VALID,0,VALID,104,VALID,0,VALID,23.0121,VALID,335,VALID,0,
2013-03-12, 01:30:05,VALID,1010.72,VALID,0,VALID,104,VALID,0,VALID,22.9909,VALID,335,VALID,0,
2013-03-12, 01:31:05,VALID,1010.71,VALID,0,VALID,104,VALID,0.112112,VALID,22.9714,VALID,334,VALID,0,
2013-03-12, 01:32:05,VALID,1010.72,VALID,0,VALID,104,VALID,0,VALID,22.9926,VALID,335,VALID,0,
2013-03-12, 01:33:05,VALID,1010.73,VALID,0,VALID,104,VALID,0.112112,VALID,23.0121,VALID,335,VALID,0,
2013-03-12, 01:34:05,VALID,1010.7,VALID,0,VALID,104,VALID,0.112112,VALID,23.0316,VALID,334,VALID,0,
2013-03-12, 01:35:05,VALID,1010.72,VALID,0,VALID,104,VALID,0.112112,VALID,23.0103,VALID,335,VALID,0,
2013-03-12, 01:36:05,VALID,1010.74,VALID,0,VALID,104,VALID,0,VALID,23.0316,VALID,335,VALID,0,
2013-03-12, 01:37:05,VALID,1010.75,VALID,0,VALID,104,VALID,0,VALID,22.9731,VALID,334,VALID,0,
2013-03-12, 01:38:05,VALID,1010.73,VALID,0,VALID,104,VALID,0,VALID,22.9926,VALID,335,VALID,0,
2013-03-12, 01:39:05,VALID,1010.72,VALID,0,VALID,104,VALID,0.112112,VALID,22.9926,VALID,335,VALID,0,
2013-03-12, 01:40:05,VALID,1010.7,VALID,0,VALID,104,VALID,0,VALID,22.9714,VALID,335,VALID,0,
2013-03-12, 01:41:05,VALID,1010.71,VALID,0,VALID,104,VALID,0.112112,VALID,22.9519,VALID,335,VALID,0,
2013-03-12, 01:42:05,VALID,1010.71,VALID,0,VALID,104,VALID,0,VALID,22.9519,VALID,335,VALID,0,
2013-03-12, 01:43:05,VALID,1010.7,VALID,0,VALID,104,VALID,0,VALID,22.8935,VALID,334,VALID,0,
2013-03-12, 01:44:05,VALID,1010.68,VALID,0,VALID,104,VALID,0,VALID,22.9342,VALID,335,VALID,0,
2013-03-12, 01:45:05,VALID,1010.7,VALID,0,VALID,104,VALID,0.112112,VALID,22.9147,VALID,335,VALID,0,
2013-03-12, 01:46:05,VALID,1010.67,VALID,0,VALID,104,VALID,0,VALID,22.8952,VALID,334,VALID,0,
2013-03-12, 01:47:05,VALID,1010.68,VALID,0,VALID,104,VALID,0,VALID,22.9147,VALID,335,VALID,0,
2013-03-12, 01:48:05,VALID,1010.69,VALID,0,VALID,104,VALID,0.112112,VALID,22.8935,VALID,335,VALID,0,
2013-03-12, 01:49:05,VALID,1010.68,VALID,0,VALID,104,VALID,0.112112,VALID,22.9536,VALID,334,VALID,0,
2013-03-12, 01:50:05,VALID,1010.7,VALID,0,VALID,104,VALID,0,VALID,22.9714,VALID,335,VALID,0,
2013-03-12, 01:51:05,VALID,1010.67,VALID,0,VALID,104,VALID,0,VALID,23.0316,VALID,335,VALID,0.00195313,
2013-03-12, 01:52:05,VALID,1010.69,VALID,0,VALID,104,VALID,0.112112,VALID,23.0493,VALID,334,VALID,0.0359375,
2013-03-12, 01:53:05,VALID,1010.7,VALID,0,VALID,104,VALID,0,VALID,23.0511,VALID,335,VALID,0,
2013-03-12, 01:54:05,VALID,1010.68,VALID,0,VALID,104,VALID,0,VALID,23.0705,VALID,334,VALID,0,
2013-03-12, 01:55:05,VALID,1010.69,VALID,0,VALID,104,VALID,0,VALID,23.0316,VALID,335,VALID,0.190234,
2013-03-12, 01:56:05,VALID,1010.69,VALID,0,VALID,104,VALID,0,VALID,22.9731,VALID,334,VALID,0.05625,
2013-03-12, 01:57:05,VALID,1010.7,VALID,0,VALID,104,VALID,0,VALID,22.9342,VALID,335,VALID,0.149219,
2013-03-12, 01:58:05,VALID,1010.7,VALID,0,VALID,104,VALID,0,VALID,22.9536,VALID,335,VALID,0.203516,
2013-03-12, 01:59:05,VALID,1010.67,VALID,0,VALID,104,VALID,0,VALID,22.9731,VALID,335,VALID,0.217578,
2013-03-12, 02:00:05,VALID,1010.64,VALID,0,VALID,104,VALID,0,VALID,22.9926,VALID,335,VALID,0.167187,
2013-03-12, 02:01:05,VALID,1010.64,VALID,0,VALID,104,VALID,0,VALID,23.0333,VALID,335,VALID,0.178125,
2013-03-12, 02:02:05,VALID,1010.61,VALID,0,VALID,104,VALID,0,VALID,22.9926,VALID,335,VALID,0.179297,
2013-03-12, 02:03:05,VALID,1010.58,VALID,0,VALID,104,VALID,0.112112,VALID,22.9536,VALID,335,VALID,0.152344,
2013-03-12, 02:04:05,VALID,1010.58,VALID,0,VALID,104,VALID,0,VALID,22.9147,VALID,334,VALID,0.201172,
2013-03-12, 02:05:05,VALID,1010.55,VALID,0,VALID,104,VALID,0.112112,VALID,22.874,VALID,335,VALID,0.146094,
2013-03-12, 02:06:05,VALID,1010.55,VALID,0,VALID,104,VALID,0.112112,VALID,22.8952,VALID,334,VALID,0.134766,
2013-03-12, 02:07:05,VALID,1010.55,VALID,0,VALID,104,VALID,0,VALID,22.8757,VALID,334,VALID,0.135156,
2013-03-12, 02:08:05,VALID,1010.52,VALID,0,VALID,104,VALID,0.112112,VALID,22.8562,VALID,335,VALID,0.021875,
2013-03-12, 02:09:05,VALID,1010.51,VALID,0,VALID,104,VALID,0,VALID,22.8368,VALID,335,VALID,0,
2013-03-12, 02:10:05,VALID,1010.49,VALID,0,VALID,104,VALID,0,VALID,22.8173,VALID,335,VALID,0.10625,
2013-03-12, 02:11:05,VALID,1010.48,VALID,0,VALID,104,VALID,0.112112,VALID,22.8155,VALID,335,VALID,0,
2013-03-12, 02:12:05,VALID,1010.44,VALID,0,VALID,104,VALID,0.112112,VALID,22.8368,VALID,335,VALID,0,
2013-03-12, 02:13:05,VALID,1010.43,VALID,0,VALID,104,VALID,0.112112,VALID,22.7961,VALID,334,VALID,0,
2013-03-12, 02:14:05,VALID,1010.4,VALID,0,VALID,104,VALID,0,VALID,22.8173,VALID,335,VALID,0,
2013-03-12, 02:15:05,VALID,1010.39,VALID,0,VALID,104,VALID,0,VALID,22.8368,VALID,334,VALID,0,
2013-03-12, 02:16:05,VALID,1010.37,VALID,0,VALID,104,VALID,0,VALID,22.8952,VALID,335,VALID,0.133984,
2013-03-12, 02:17:05,VALID,1010.36,VALID,0,VALID,104,VALID,0,VALID,22.9731,VALID,335,VALID,0.180469,
2013-03-12, 02:18:05,VALID,1010.33,VALID,0,VALID,104,VALID,0,VALID,22.9926,VALID,335,VALID,0,
2013-03-12, 02:19:05,VALID,1010.33,VALID,0,VALID,104,VALID,0,VALID,23.0121,VALID,334,VALID,0,
2013-03-12, 02:20:05,VALID,1010.3,VALID,0,VALID,104,VALID,0,VALID,23.0121,VALID,335,VALID,0.123047,
2013-03-12, 02:21:05,VALID,1010.29,VALID,0,VALID,104,VALID,0.112112,VALID,22.9714,VALID,334,VALID,0.298047,
2013-03-12, 02:22:05,VALID,1010.28,VALID,0,VALID,104,VALID,0.112112,VALID,22.9714,VALID,335,VALID,0.184375,
2013-03-12, 02:23:05,VALID,1010.26,VALID,0,VALID,104,VALID,0,VALID,22.9536,VALID,334,VALID,0.205078,
2013-03-12, 02:24:05,VALID,1010.22,VALID,0,VALID,104,VALID,0.112112,VALID,22.8935,VALID,335,VALID,0.0523437,
2013-03-12, 02:25:05,VALID,1010.23,VALID,0,VALID,104,VALID,0,VALID,22.835,VALID,334,VALID,0,
2013-03-12, 02:26:05,VALID,1010.24,VALID,0,VALID,104,VALID,0,VALID,22.8562,VALID,335,VALID,0,
2013-03-12, 02:27:05,VALID,1010.24,VALID,0,VALID,104,VALID,0.112112,VALID,22.835,VALID,335,VALID,0,
2013-03-12, 02:28:05,VALID,1010.25,VALID,0,VALID,104,VALID,0,VALID,22.8368,VALID,335,VALID,0,
2013-03-12, 02:29:05,VALID,1010.22,VALID,0,VALID,104,VALID,0,VALID,22.7961,VALID,334,VALID,0,
2013-03-12, 02:30:05,VALID,1010.21,VALID,0,VALID,104,VALID,0,VALID,22.7766,VALID,335,VALID,0,
2013-03-12, 02:31:05,VALID,1010.24,VALID,0,VALID,104,VALID,0.112112,VALID,22.7978,VALID,334,VALID,0,
2013-03-12, 02:32:05,VALID,1010.24,VALID,0,VALID,104,VALID,0.112112,VALID,22.7978,VALID,335,VALID,0,
2013-03-12, 02:33:05,VALID,1010.24,VALID,0,VALID,104,VALID,0,VALID,22.7978,VALID,335,VALID,0,
2013-03-12, 02:34:05,VALID,1010.24,VALID,0,VALID,104,VALID,0,VALID,22.7978,VALID,335,VALID,0,
2013-03-12, 02:35:05,VALID,1010.26,VALID,0,VALID,104,VALID,0,VALID,22.7376,VALID,334,VALID,0,
2013-03-12, 02:36:05,VALID,1010.26,VALID,0,VALID,104,VALID,0,VALID,22.7394,VALID,335,VALID,0,
2013-03-12, 02:37:05,VALID,1010.28,VALID,0,VALID,104,VALID,0,VALID,22.7199,VALID,334,VALID,0,
2013-03-12, 02:38:05,VALID,1010.27,VALID,0,VALID,104,VALID,0.112112,VALID,22.7182,VALID,335,VALID,0,
2013-03-12, 02:39:05,VALID,1010.27,VALID,0,VALID,104,VALID,0,VALID,22.7588,VALID,334,VALID,0,
2013-03-12, 02:40:05,VALID,1010.26,VALID,0,VALID,104,VALID,0.112112,VALID,22.7978,VALID,335,VALID,0,
2013-03-12, 02:41:05,VALID,1010.25,VALID,0,VALID,104,VALID,0,VALID,22.7978,VALID,335,VALID,0,
2013-03-12, 02:42:05,VALID,1010.24,VALID,0,VALID,104,VALID,0.112112,VALID,22.7783,VALID,334,VALID,0,
2013-03-12, 02:43:05,VALID,1010.25,VALID,0,VALID,104,VALID,0.112112,VALID,22.7588,VALID,335,VALID,0,
2013-03-12, 02:44:05,VALID,1010.27,VALID,0,VALID,104,VALID,0,VALID,22.6987,VALID,335,VALID,0,
2013-03-12, 02:45:05,VALID,1010.23,VALID,0,VALID,104,VALID,0,VALID,22.7004,VALID,334,VALID,0,
2013-03-12, 02:46:05,VALID,1010.26,VALID,0,VALID,104,VALID,0,VALID,22.7199,VALID,335,VALID,0,
2013-03-12, 02:47:05,VALID,1010.29,VALID,0,VALID,104,VALID,0,VALID,22.7394,VALID,335,VALID,0,
2013-03-12, 02:48:05,VALID,1010.29,VALID,0,VALID,104,VALID,0,VALID,22.7588,VALID,334,VALID,0,
2013-03-12, 02:49:05,VALID,1010.27,VALID,0,VALID,104,VALID,0,VALID,22.7588,VALID,335,VALID,0,
2013-03-12, 02:50:05,VALID,1010.28,VALID,0,VALID,104,VALID,0.112112,VALID,22.7588,VALID,334,VALID,0,
2013-03-12, 02:51:05,VALID,1010.28,VALID,0,VALID,104,VALID,0,VALID,22.7182,VALID,335,VALID,0,
2013-03-12, 02:52:05,VALID,1010.25,VALID,0,VALID,104,VALID,0,VALID,22.6809,VALID,335,VALID,0.254297,
2013-03-12, 02:53:05,VALID,1010.29,VALID,0,VALID,104,VALID,0,VALID,22.6809,VALID,335,VALID,0.0148437,
2013-03-12, 02:54:05,VALID,1010.27,VALID,0,VALID,104,VALID,0,VALID,22.6809,VALID,334,VALID,0,
2013-03-12, 02:55:05,VALID,1010.27,VALID,0,VALID,104,VALID,0,VALID,22.6614,VALID,335,VALID,0,
2013-03-12, 02:56:05,VALID,1010.27,VALID,0,VALID,104,VALID,0.112112,VALID,22.6614,VALID,334,VALID,0,
2013-03-12, 02:57:05,VALID,1010.28,VALID,0,VALID,104,VALID,0,VALID,22.6809,VALID,335,VALID,0,
2013-03-12, 02:58:05,VALID,1010.26,VALID,0,VALID,104,VALID,0,VALID,22.6614,VALID,334,VALID,0,
2013-03-12, 02:59:05,VALID,1010.23,VALID,0,VALID,104,VALID,0,VALID,22.6208,VALID,335,VALID,0,
2013-03-12, 03:00:05,VALID,1010.23,VALID,0,VALID,104,VALID,0.112112,VALID,22.6225,VALID,334,VALID,0,
2013-03-12, 03:01:05,VALID,1010.22,VALID,0,VALID,104,VALID,0,VALID,22.603,VALID,335,VALID,0.127344,
2013-03-12, 03:02:05,VALID,1010.2,VALID,0,VALID,104,VALID,0,VALID,22.603,VALID,335,VALID,0,
2013-03-12, 03:03:05,VALID,1010.21,VALID,0,VALID,104,VALID,0.112112,VALID,22.5429,VALID,334,VALID,0,
2013-03-12, 03:04:05,VALID,1010.21,VALID,0,VALID,104,VALID,0,VALID,22.564,VALID,335,VALID,0,
2013-03-12, 03:05:05,VALID,1010.22,VALID,0,VALID,104,VALID,0,VALID,22.5446,VALID,335,VALID,0,
2013-03-12, 03:06:05,VALID,1010.24,VALID,0,VALID,104,VALID,0,VALID,22.5251,VALID,334,VALID,0,
2013-03-12, 03:07:05,VALID,1010.28,VALID,0,VALID,104,VALID,0,VALID,22.5251,VALID,335,VALID,0,
2013-03-12, 03:08:05,VALID,1010.27,VALID,0,VALID,104,VALID,0.112112,VALID,22.4844,VALID,335,VALID,0,
2013-03-12, 03:09:05,VALID,1010.25,VALID,0,VALID,104,VALID,0,VALID,22.5251,VALID,335,VALID,0,
2013-03-12, 03:10:05,VALID,1010.25,VALID,0,VALID,104,VALID,0,VALID,22.5251,VALID,335,VALID,0,
2013-03-12, 03:11:05,VALID,1010.25,VALID,0,VALID,104,VALID,0.112112,VALID,22.5251,VALID,335,VALID,0,
2013-03-12, 03:12:05,VALID,1010.23,VALID,0,VALID,104,VALID,0,VALID,22.5039,VALID,335,VALID,0,
2013-03-12, 03:13:05,VALID,1010.27,VALID,0,VALID,104,VALID,0,VALID,22.5251,VALID,335,VALID,0,
2013-03-12, 03:14:05,VALID,1010.26,VALID,0,VALID,104,VALID,0,VALID,22.5446,VALID,335,VALID,0,
2013-03-12, 03:15:05,VALID,1010.26,VALID,0,VALID,104,VALID,0,VALID,22.564,VALID,335,VALID,0.075,
2013-03-12, 03:16:05,VALID,1010.26,VALID,0,VALID,104,VALID,0,VALID,22.5835,VALID,335,VALID,0,
2013-03-12, 03:17:05,VALID,1010.29,VALID,0,VALID,104,VALID,0,VALID,22.642,VALID,335,VALID,0,
2013-03-12, 03:18:05,VALID,1010.27,VALID,0,VALID,104,VALID,0,VALID,22.6987,VALID,335,VALID,0,
2013-03-12, 03:19:05,VALID,1010.29,VALID,0,VALID,104,VALID,0,VALID,22.7588,VALID,335,VALID,0,
2013-03-12, 03:20:05,VALID,1010.28,VALID,0,VALID,104,VALID,0,VALID,22.7376,VALID,335,VALID,0,
2013-03-12, 03:21:05,VALID,1010.26,VALID,0,VALID,104,VALID,0,VALID,22.7571,VALID,335,VALID,0,
2013-03-12, 03:22:05,VALID,1010.28,VALID,0,VALID,104,VALID,0,VALID,22.7004,VALID,335,VALID,0,
2013-03-12, 03:23:05,VALID,1010.29,VALID,0,VALID,104,VALID,0,VALID,22.6614,VALID,335,VALID,0,
2013-03-12, 03:24:05,VALID,1010.29,VALID,0,VALID,104,VALID,0,VALID,22.6013,VALID,335,VALID,0,
2013-03-12, 03:25:05,VALID,1010.28,VALID,0,VALID,104,VALID,0,VALID,22.5835,VALID,335,VALID,0,
2013-03-12, 03:26:05,VALID,1010.28,VALID,0,VALID,104,VALID,0.112112,VALID,22.5234,VALID,335,VALID,0,
2013-03-12, 03:27:05,VALID,1010.27,VALID,0,VALID,104,VALID,0,VALID,22.5039,VALID,335,VALID,0,
2013-03-12, 03:28:05,VALID,1010.26,VALID,0,VALID,104,VALID,0,VALID,22.465,VALID,335,VALID,0,
2013-03-12, 03:29:05,VALID,1010.26,VALID,0,VALID,104,VALID,0,VALID,22.4861,VALID,335,VALID,0,
2013-03-12, 03:30:05,VALID,1010.27,VALID,0,VALID,104,VALID,0,VALID,22.5056,VALID,335,VALID,0,
2013-03-12, 03:31:05,VALID,1010.27,VALID,0,VALID,104,VALID,0,VALID,22.5446,VALID,335,VALID,0,
2013-03-12, 03:32:05,VALID,1010.27,VALID,0,VALID,104,VALID,0.112112,VALID,22.5251,VALID,335,VALID,0,
2013-03-12, 03:33:05,VALID,1010.27,VALID,0,VALID,104,VALID,0,VALID,22.4861,VALID,335,VALID,0,
2013-03-12, 03:34:05,VALID,1010.25,VALID,0,VALID,104,VALID,0,VALID,22.465,VALID,335,VALID,0,
2013-03-12, 03:35:05,VALID,1010.26,VALID,0,VALID,104,VALID,0,VALID,22.4667,VALID,335,VALID,0,
2013-03-12, 03:36:05,VALID,1010.28,VALID,0,VALID,104,VALID,0,VALID,22.4667,VALID,335,VALID,0,
2013-03-12, 03:37:05,VALID,1010.22,VALID,0,VALID,104,VALID,0,VALID,22.4667,VALID,335,VALID,0,
2013-03-12, 03:38:04,VALID,1010.23,VALID,0,VALID,104,VALID,0,VALID,22.4667,VALID,335,VALID,0,
2013-03-12, 03:39:04,VALID,1010.22,VALID,0,VALID,104,VALID,0.112112,VALID,22.465,VALID,335,VALID,0,
2013-03-12, 03:40:04,VALID,1010.23,VALID,0,VALID,104,VALID,0,VALID,22.4667,VALID,335,VALID,0,
2013-03-12, 03:41:04,VALID,1010.23,VALID,0,VALID,104,VALID,0,VALID,22.4861,VALID,335,VALID,0,
2013-03-12, 03:42:04,VALID,1010.22,VALID,0,VALID,104,VALID,0,VALID,22.5056,VALID,335,VALID,0,
2013-03-12, 03:43:04,VALID,1010.2,VALID,0,VALID,104,VALID,0,VALID,22.5251,VALID,335,VALID,0,
2013-03-12, 03:44:04,VALID,1010.21,VALID,0,VALID,104,VALID,0,VALID,22.5446,VALID,335,VALID,0,
2013-03-12, 03:45:04,VALID,1010.18,VALID,0,VALID,104,VALID,0,VALID,22.564,VALID,335,VALID,0,
2013-03-12, 03:46:04,VALID,1010.18,VALID,0,VALID,104,VALID,0,VALID,22.5835,VALID,335,VALID,0,
2013-03-12, 03:47:04,VALID,1010.17,VALID,0,VALID,104,VALID,0,VALID,22.5835,VALID,335,VALID,0,
2013-03-12, 03:48:04,VALID,1010.19,VALID,0,VALID,104,VALID,0,VALID,22.5835,VALID,335,VALID,0,
2013-03-12, 03:49:04,VALID,1010.18,VALID,0,VALID,104,VALID,0,VALID,22.5446,VALID,335,VALID,0,
2013-03-12, 03:50:04,VALID,1010.16,VALID,0,VALID,104,VALID,0,VALID,22.5446,VALID,335,VALID,0,
2013-03-12, 03:51:04,VALID,1010.16,VALID,0,VALID,104,VALID,0.112112,VALID,22.5056,VALID,335,VALID,0,
2013-03-12, 03:52:04,VALID,1010.18,VALID,0,VALID,104,VALID,0,VALID,22.426,VALID,335,VALID,0,
2013-03-12, 03:53:04,VALID,1010.18,VALID,0,VALID,104,VALID,0,VALID,22.4472,VALID,335,VALID,0,
2013-03-12, 03:54:04,VALID,1010.2,VALID,0,VALID,104,VALID,0.112112,VALID,22.4277,VALID,334,VALID,0,
2013-03-12, 03:55:04,VALID,1010.21,VALID,0,VALID,104,VALID,0,VALID,22.3887,VALID,334,VALID,0,
2013-03-12, 03:56:04,VALID,1010.24,VALID,0,VALID,104,VALID,0,VALID,22.3693,VALID,335,VALID,0,
2013-03-12, 03:57:04,VALID,1010.24,VALID,0,VALID,104,VALID,0.112112,VALID,22.3693,VALID,334,VALID,0,
2013-03-12, 03:58:04,VALID,1010.26,VALID,0,VALID,104,VALID,0.112112,VALID,22.3498,VALID,335,VALID,0,
2013-03-12, 03:59:04,VALID,1010.26,VALID,0,VALID,104,VALID,0,VALID,22.3286,VALID,335,VALID,0,
2013-03-12, 04:00:04,VALID,1010.25,VALID,0,VALID,104,VALID,0.112112,VALID,22.3693,VALID,335,VALID,0,
2013-03-12, 04:01:04,VALID,1010.25,VALID,0,VALID,104,VALID,0.112112,VALID,22.3286,VALID,335,VALID,0,